Location: Prairie State College
(41.5244°N, 87.6382°W)
Time: 09:45:32
(UTC-05:00)

Cosmos 1140 Rocket - Visible Passes

Search period start: 24 July 2014 00:00
Search period end: 03 August 2014 00:00
Orbit: 746 x 769 km, 74.1° (Epoch: 24 July)

Date Brightness Start Highest point End Pass type
(mag) Time Alt. Az. Time Alt. Az. Time Alt. Az.
26 Jul 6.0 04:52:14 10° SE 04:55:53 19° E 04:59:31 10° NE visible
29 Jul 5.5 04:32:43 10° SSE 04:37:01 26° E 04:41:18 10° NE visible
30 Jul 6.1 03:54:30 10° SE 03:57:11 14° E 03:59:51 10° ENE visible
31 Jul 3.9 04:53:02 10° S 04:58:12 67° ESE 05:03:23 10° NNE visible
01 Aug 4.9 04:13:27 10° SSE 04:18:11 36° ESE 04:22:55 10° NE visible
02 Aug 5.7 03:34:36 10° SE 03:38:17 20° E 03:41:58 10° NE visible
02 Aug 3.9 05:14:38 10° SW 05:19:41 50° WNW 05:24:46 10° N visible
